When you browse on this site, cookies collect data to enhance your experience and personalize the content and advertising you see.
Visit our Privacy Policy to learn more. By continuing to use the site, you agree to this use of cookies and data.
  • In Hungary
  • List of Countries
  • For 7 days
  • Water Temperature
  • Satellite Maps
  • Weather Map
  • News
  • Weather Widgets
  • user-avatar
    Login

    Hourly Weather Nordenham

    Today, 21 February, Thursday

    Time Temperature Precipitation Wind Pressure Humidity
    00:00 +6°C° 0.1 mm 5 mps 766 mmHg 81%
    01:00 +6°C° 0 mm 5 mps 766 mmHg 81%
    02:00 +6°C° 0.1 mm 5 mps 766 mmHg 82%
    03:00 +6°C° 0.1 mm 5 mps 766 mmHg 83%
    04:00 +6°C° 0.1 mm 5 mps 766 mmHg 84%
    05:00 +5°C° 0 mm 5 mps 766 mmHg 87%
    06:00 +5°C° 0 mm 5 mps 766 mmHg 90%
    07:00 +4°C° 0 mm 4 mps 766 mmHg 93%
    08:00 +3°C° 0 mm 5 mps 766 mmHg 92%
    09:00 +5°C° 0 mm 5 mps 766 mmHg 90%
    10:00 +6°C° 0 mm 5 mps 766 mmHg 89%
    11:00 +6°C° 0 mm 5 mps 766 mmHg 88%
    12:00 +7°C° 0 mm 5 mps 767 mmHg 87%
    13:00 +7°C° 0 mm 6 mps 767 mmHg 86%
    14:00 +7°C° 0.1 mm 5 mps 767 mmHg 88%
    15:00 +7°C° 0.1 mm 5 mps 767 mmHg 90%
    16:00 +7°C° 0.1 mm 5 mps 767 mmHg 92%
    17:00 +6°C° 0 mm 5 mps 767 mmHg 93%
    18:00 +6°C° 0 mm 4 mps 768 mmHg 94%
    19:00 +6°C° 0 mm 4 mps 768 mmHg 95%
    20:00 +6°C° 0 mm 4 mps 768 mmHg 95%
    21:00 +6°C° 0 mm 4 mps 769 mmHg 95%
    22:00 +6°C° 0 mm 4 mps 769 mmHg 95%
    23:00 +6°C° 0 mm 4 mps 770 mmHg 96%

    Tomorrow, 22 February, Friday

    Time Temperature Precipitation Wind Pressure Humidity
    00:00 +7°C° 0 mm 3 mps 771 mmHg 96%
    01:00 +7°C° 0 mm 3 mps 771 mmHg 96%
    02:00 +7°C° 0 mm 3 mps 772 mmHg 96%
    03:00 +7°C° 0 mm 3 mps 772 mmHg 96%
    04:00 +5°C° 0 mm 3 mps 773 mmHg 96%
    05:00 +5°C° 0 mm 3 mps 773 mmHg 96%
    06:00 +6°C° 0 mm 2 mps 774 mmHg 95%
    07:00 +6°C° 0 mm 2 mps 775 mmHg 94%
    08:00 +5°C° 0 mm 3 mps 775 mmHg 92%
    09:00 +5°C° 0 mm 3 mps 776 mmHg 89%
    10:00 +5°C° 0 mm 4 mps 777 mmHg 86%
    11:00 +5°C° 0 mm 4 mps 777 mmHg 82%
    12:00 +6°C° 0 mm 4 mps 778 mmHg 78%
    13:00 +6°C° 0 mm 4 mps 778 mmHg 74%
    14:00 +7°C° 0 mm 3 mps 778 mmHg 72%
    15:00 +8°C° 0 mm 3 mps 779 mmHg 70%
    16:00 +8°C° 0 mm 3 mps 779 mmHg 68%
    17:00 +7°C° 0 mm 3 mps 779 mmHg 71%
    18:00 +5°C° 0 mm 3 mps 779 mmHg 74%
    19:00 +3°C° 0 mm 3 mps 780 mmHg 77%
    20:00 +3°C° 0 mm 3 mps 780 mmHg 78%
    21:00 +3°C° 0 mm 3 mps 780 mmHg 79%
    22:00 +2°C° 0 mm 3 mps 780 mmHg 80%
    23:00 +2°C° 0 mm 3 mps 780 mmHg 80%

    Day after tomorrow, 23 February, Saturday

    Time Temperature Precipitation Wind Pressure Humidity
    00:00 +1°C° 0 mm 3 mps 780 mmHg 80%
    01:00 +1°C° 0 mm 3 mps 780 mmHg 80%
    02:00 +1°C° 0 mm 3 mps 780 mmHg 79%
    03:00 0°C° 0 mm 3 mps 780 mmHg 79%
    04:00 0°C° 0 mm 3 mps 780 mmHg 79%
    05:00 0°C° 0 mm 3 mps 780 mmHg 79%
    06:00 0°C° 0 mm 3 mps 780 mmHg 79%
    07:00 -1°C° 0 mm 3 mps 780 mmHg 79%
    08:00 0°C° 0 mm 3 mps 780 mmHg 74%
    09:00 +1°C° 0 mm 3 mps 780 mmHg 69%
    10:00 +2°C° 0 mm 3 mps 780 mmHg 64%
    11:00 +3°C° 0 mm 3 mps 780 mmHg 60%
    12:00 +5°C° 0 mm 3 mps 780 mmHg 56%
    13:00 +7°C° 0 mm 3 mps 780 mmHg 52%
    14:00 +7°C° 0 mm 3 mps 779 mmHg 52%
    15:00 +7°C° 0 mm 3 mps 779 mmHg 51%
    16:00 +8°C° 0 mm 3 mps 779 mmHg 51%
    17:00 +5°C° 0 mm 3 mps 779 mmHg 52%
    18:00 +4°C° 0 mm 3 mps 779 mmHg 54%
    19:00 +3°C° 0 mm 3 mps 779 mmHg 56%
    20:00 +2°C° 0 mm 3 mps 779 mmHg 55%
    21:00 +2°C° 0 mm 3 mps 779 mmHg 55%
    22:00 +2°C° 0 mm 3 mps 779 mmHg 55%
    23:00 +1°C° 0 mm 3 mps 779 mmHg 55%

    24 February, Sunday

    Time Temperature Precipitation Wind Pressure Humidity
    00:00 +1°C° 0 mm 3 mps 779 mmHg 56%
    01:00 +2°C° 0 mm 2 mps 779 mmHg 57%
    02:00 +2°C° 0 mm 2 mps 778 mmHg 57%
    03:00 +2°C° 0 mm 2 mps 778 mmHg 57%
    04:00 +2°C° 0 mm 2 mps 778 mmHg 57%
    05:00 +2°C° 0 mm 2 mps 778 mmHg 57%
    06:00 +2°C° 0 mm 2 mps 778 mmHg 57%
    07:00 +2°C° 0 mm 2 mps 778 mmHg 57%
    08:00 +3°C° 0 mm 2 mps 778 mmHg 56%
    09:00 +4°C° 0 mm 2 mps 779 mmHg 55%
    10:00 +5°C° 0 mm 2 mps 779 mmHg 54%
    11:00 +7°C° 0 mm 2 mps 779 mmHg 51%
    12:00 +8°C° 0 mm 2 mps 779 mmHg 49%
    13:00 +10°C° 0 mm 1 mps 779 mmHg 46%
    14:00 +11°C° 0 mm 1 mps 779 mmHg 49%
    15:00 +11°C° 0 mm 1 mps 778 mmHg 52%
    16:00 +11°C° 0 mm 1 mps 778 mmHg 55%
    17:00 +10°C° 0 mm 1 mps 778 mmHg 57%
    18:00 +7°C° 0 mm 2 mps 778 mmHg 60%
    19:00 +6°C° 0 mm 2 mps 778 mmHg 63%
    20:00 +6°C° 0 mm 2 mps 778 mmHg 63%
    21:00 +5°C° 0 mm 2 mps 778 mmHg 63%
    22:00 +5°C° 0 mm 2 mps 778 mmHg 63%
    23:00 +5°C° 0 mm 2 mps 778 mmHg 63%

    25 February, Monday

    Time Temperature Precipitation Wind Pressure Humidity
    00:00 +5°C° 0 mm 2 mps 778 mmHg 63%
    01:00 +4°C° 0 mm 2 mps 778 mmHg 63%
    02:00 +5°C° 0 mm 1 mps 778 mmHg 63%
    03:00 +5°C° 0 mm 1 mps 778 mmHg 63%
    04:00 +5°C° 0 mm 1 mps 778 mmHg 64%
    05:00 +5°C° 0 mm 1 mps 778 mmHg 64%
    06:00 +4°C° 0 mm 1 mps 778 mmHg 65%
    07:00 +4°C° 0 mm 1 mps 778 mmHg 66%
    08:00 +4°C° 0 mm 2 mps 778 mmHg 65%
    09:00 +6°C° 0 mm 2 mps 778 mmHg 63%
    10:00 +7°C° 0 mm 3 mps 779 mmHg 62%
    11:00 +8°C° 0 mm 2 mps 779 mmHg 59%
    12:00 +10°C° 0 mm 1 mps 778 mmHg 56%
    13:00 +12°C° 0 mm 1 mps 778 mmHg 54%
    14:00 +12°C° 0 mm 1 mps 778 mmHg 55%
    15:00 +11°C° 0 mm 0 mps 778 mmHg 56%
    16:00 +11°C° 0 mm 0 mps 777 mmHg 57%
    17:00 +10°C° 0 mm 0 mps 777 mmHg 61%
    18:00 +8°C° 0 mm 0 mps 777 mmHg 66%
    19:00 +6°C° 0 mm 0 mps 777 mmHg 70%
    20:00 +7°C° 0 mm 1 mps 777 mmHg 70%
    21:00 +7°C° 0 mm 1 mps 777 mmHg 71%
    22:00 +7°C° 0 mm 1 mps 777 mmHg 71%
    23:00 +6°C° 0 mm 1 mps 777 mmHg 72%

    26 February, Tuesday

    Time Temperature Precipitation Wind Pressure Humidity
    00:00 +5°C° 0 mm 2 mps 777 mmHg 73%
    01:00 +5°C° 0 mm 2 mps 777 mmHg 73%
    02:00 +5°C° 0 mm 2 mps 776 mmHg 73%
    03:00 +5°C° 0 mm 2 mps 776 mmHg 72%
    04:00 +4°C° 0 mm 2 mps 776 mmHg 72%
    05:00 +4°C° 0 mm 2 mps 776 mmHg 71%
    06:00 +3°C° 0 mm 3 mps 775 mmHg 70%
    07:00 +3°C° 0 mm 3 mps 775 mmHg 70%
    08:00 +4°C° 0 mm 3 mps 775 mmHg 67%
    09:00 +5°C° 0 mm 3 mps 775 mmHg 65%
    10:00 +8°C° 0 mm 3 mps 776 mmHg 63%
    11:00 +9°C° 0 mm 3 mps 775 mmHg 63%
    12:00 +10°C° 0 mm 3 mps 775 mmHg 63%
    13:00 +11°C° 0 mm 3 mps 775 mmHg 63%
    14:00 +11°C° 0 mm 3 mps 775 mmHg 66%
    15:00 +11°C° 0 mm 3 mps 774 mmHg 69%
    16:00 +10°C° 0 mm 3 mps 774 mmHg 71%
    17:00 +9°C° 0 mm 3 mps 774 mmHg 77%
    18:00 +8°C° 0 mm 3 mps 774 mmHg 83%
    19:00 +5°C° 0 mm 3 mps 774 mmHg 89%
    20:00 +6°C° 0 mm 2 mps 774 mmHg 90%
    21:00 +6°C° 0 mm 2 mps 774 mmHg 91%
    22:00 +6°C° 0 mm 2 mps 774 mmHg 92%
    23:00 +6°C° 0 mm 1 mps 774 mmHg 92%
    Show more